DW6722 Weather Reports


time (UTC)temp
C
wind
direction
speed
KPH
gust
KPH
rain 1hr
cm
rain 24hr
cm
rain mn
cm
humidity
%
barometer
mb
20260503021512 13 200 3.2 6.4 0.00 1.04 0.10 91 1011.8
20260503021011 13 219 3.2 9.7 0.00 1.04 0.10 91 1011.9
20260503020512 13 252 3.2 9.7 0.00 1.04 0.10 91 1012.0
20260503020011 13 221 6.4 9.7 0.00 1.04 0.10 91 1012.0
20260503015510 13 219 4.8 6.4 0.00 1.04 0.10 91 1011.9
20260503015012 13 214 1.6 4.8 0.00 1.04 0.10 91 1011.7
20260503014510 13 121 1.6 3.2 0.00 1.04 0.10 91 1011.6
20260503014010 13 113 0.0 4.8 0.00 1.04 0.10 91 1011.7
20260503013510 13 127 1.6 4.8 0.00 1.04 0.10 91 1011.7
20260503013011 13 145 1.6 6.4 0.00 1.04 0.10 91 1011.7
20260503012511 13 139 3.2 6.4 0.00 1.04 0.10 91 1011.7
20260503012008 13 150 3.2 9.7 0.00 1.04 0.10 91 1011.7
20260503011509 13 101 8.0 9.7 0.00 1.04 0.10 91 1011.6
20260503011007 13 103 8.0 11.3 0.00 1.04 0.10 91 1011.7
20260503010509 13 96 6.4 11.3 0.00 1.04 0.10 91 1011.7
20260503010007 13 112 6.4 17.7 0.00 1.04 0.10 91 1011.8
20260503005506 13 131 9.7 16.1 0.00 1.04 0.10 91 1011.9
20260503005010 13 110 8.0 19.3 0.00 1.04 0.10 91 1011.9
20260503004507 13 123 9.7 19.3 0.00 1.04 0.10 91 1011.9
20260503004007 13 120 8.0 12.9 0.00 1.04 0.10 91 1011.9
20260503003503 13 101 6.4 12.9 0.03 1.04 0.10 91 1011.9
20260503003004 13 126 8.0 12.9 0.03 1.04 0.10 91 1012.0
20260503002506 13 96 6.4 9.7 0.03 1.04 0.10 91 1011.9
20260503002003 13 89 3.2 6.4 0.03 1.04 0.10 91 1011.9
20260503001504 13 65 1.6 6.4 0.03 1.04 0.10 91 1011.9
20260503001003 13 60 3.2 6.4 0.03 1.04 0.10 91 1011.8
20260503000502 13 68 1.6 9.7 0.03 1.04 0.10 91 1011.9
20260503000001 13 90 4.8 9.7 0.03 1.04 0.10 91 1012.0
20260502235600 13 64 3.2 8.0 0.05 1.04 0.10 91 1012.1
20260502235100 13 84 1.6 11.3 0.05 1.04 0.10 91 1012.2
20260502234600 13 79 6.4 11.3 0.05 1.04 0.10 91 1012.2
20260502234059 13 68 3.2 9.7 0.05 1.04 0.10 91 1012.4
20260502233559 13 72 4.8 9.7 0.05 1.02 0.08 91 1012.6
20260502233102 13 115 6.4 11.3 0.08 1.02 0.08 91 1012.7
20260502232558 13 66 6.4 11.3 0.08 1.02 0.08 90 1012.5
20260502232059 13 49 6.4 9.7 0.08 1.02 0.08 91 1012.5
20260502231603 13 27 4.8 11.3 0.08 1.02 0.08 90 1012.6
20260502231058 13 72 4.8 11.3 0.08 1.02 0.08 90 1012.8
20260502230558 13 84 4.8 12.9 0.08 1.02 0.08 90 1012.7
20260502230111 13 72 6.4 22.5 0.08 1.02 0.08 90 1012.7
20260502225556 13 88 12.9 24.1 0.05 0.99 0.05 90 1012.6
20260502225056 13 46 17.7 24.1 0.05 0.99 0.05 90 1012.0
20260502224554 13 58 8.0 17.7 0.05 0.99 0.05 90 1012.7
20260502224053 13 44 11.3 17.7 0.05 0.99 0.05 90 1012.8
20260502223552 13 90 9.7 16.1 0.00 0.94 0.00 90 1013.2
20260502223051 13 110 9.7 16.1 0.00 0.94 0.00 90 1013.2
20260502222551 13 129 8.0 11.3 0.03 0.94 0.00 90 1013.1
20260502222052 13 108 6.4 11.3 0.05 0.94 0.00 90 1013.0
20260502221549 13 19 6.4 11.3 0.10 0.94 0.00 90 1012.9
20260502221051 13 58 6.4 14.5 0.15 0.94 0.00 90 1012.9
20260502220548 13 44 9.7 14.5 0.20 0.94 0.00 90 1012.8
20260502220048 13 46 8.0 12.9 0.25 0.94 0.00 89 1013.0
20260502215546 13 50 6.4 12.9 0.30 0.94 0.94 89 1013.1
20260502215045 13 88 6.4 14.5 0.41 0.94 0.94 89 1013.2
20260502214545 13 48 6.4 14.5 0.61 0.94 0.94 89 1013.1
20260502214046 13 41 11.3 14.5 0.71 0.94 0.94 89 1013.1
20260502213545 13 49 11.3 17.7 0.91 0.94 0.94 89 1013.1
20260502213045 13 21 14.5 17.7 0.94 0.94 0.94 88 1013.2
20260502212544 13 11 12.9 16.1 0.91 0.91 0.91 88 1013.3
20260502212044 13 4 11.3 16.1 0.89 0.89 0.89 88 1013.6
20260502211552 13 10 14.5 16.1 0.81 0.81 0.81 87 1013.5
20260502211046 13 358 8.0 11.3 0.79 0.79 0.79 87 1014.1
20260502210546 13 286 4.8 12.9 0.71 0.71 0.71 86 1014.5
20260502210043 13 264 6.4 17.7 0.69 0.69 0.69 85 1014.7
20260502205542 14 264 8.0 22.5 0.64 0.64 0.64 84 1014.9
20260502205042 14 220 11.3 29.0 0.51 0.51 0.51 82 1015.0
20260502204541 15 256 17.7 32.2 0.33 0.33 0.33 76 1014.9
20260502204041 16 209 14.5 38.6 0.20 0.20 0.20 74 1014.8
20260502203538 17 193 30.6 38.6 0.00 0.00 0.00 71 1014.6
20260502203039 17 213 25.7 38.6 0.00 0.00 0.00 68 1014.4
20260502202537 17 41 1.6 9.7 0.00 0.00 0.00 68 1013.3
20260502202037 17 14 6.4 9.7 0.00 0.00 0.00 68 1013.1
20260502201537 17 11 4.8 9.7 0.00 0.00 0.00 69 1013.1
20260502201037 17 3 6.4 11.3 0.00 0.00 0.00 69 1013.0
20260502200537 17 11 8.0 11.3 0.00 0.00 0.00 68 1013.1
20260502200043 17 6 8.0 12.9 0.00 0.00 0.00 68 1013.1
20260502195536 17 15 9.7 14.5 0.00 0.00 0.00 68 1013.1
20260502195035 17 14 11.3 14.5 0.00 0.00 0.00 68 1013.2
20260502194535 17 1 9.7 12.9 0.00 0.00 0.00 68 1013.3
20260502194036 17 6 8.0 11.3 0.00 0.00 0.00 69 1013.4
20260502193534 17 4 8.0 11.3 0.00 0.00 0.00 69 1013.3
20260502193033 17 16 8.0 12.9 0.00 0.00 0.00 69 1013.4
20260502192532 17 13 8.0 12.9 0.00 0.00 0.00 68 1013.5
20260502192033 17 3 8.0 14.5 0.00 0.00 0.00 68 1013.5
20260502191534 17 8 9.7 14.5 0.00 0.00 0.00 67 1013.5
20260502191032 17 4 9.7 14.5 0.00 0.00 0.00 68 1013.4
20260502190532 17 4 9.7 14.5 0.00 0.00 0.00 68 1013.4
20260502190032 17 1 9.7 14.5 0.00 0.00 0.00 68 1013.5
20260502185532 18 359 11.3 14.5 0.00 0.00 0.00 67 1013.5
20260502185031 18 356 9.7 16.1 0.00 0.00 0.00 67 1013.6
20260502184536 18 14 12.9 16.1 0.00 0.00 0.00 66 1013.6
20260502184005 18 347 11.3 16.1 0.00 0.00 0.00 66 1013.5
20260502183505 19 359 9.7 16.1 0.00 0.00 0.00 65 1013.6
20260502183005 19 349 11.3 14.5 0.00 0.00 0.00 64 1013.6
20260502182504 19 18 8.0 11.3 0.00 0.00 0.00 62 1013.6
20260502182004 20 9 6.4 11.3 0.00 0.00 0.00 62 1013.6
20260502181504 20 11 8.0 11.3 0.00 0.00 0.00 62 1013.5
20260502181004 20 7 6.4 9.7 0.00 0.00 0.00 61 1013.6
20260502180504 20 11 6.4 9.7 0.00 0.00 0.00 61 1013.6
20260502164056 21 328 8.0 9.7 0.00 0.00 0.00 59 1014.2
20260502163555 21 315 6.4 8.0 0.00 0.00 0.00 59 1014.3
20260502163101 21 310 4.8 9.7 0.00 0.00 0.00 60 1014.4
20260502162555 21 293 6.4 11.3 0.00 0.00 0.00 60 1014.5
20260502162054 21 289 8.0 12.9 0.00 0.00 0.00 61 1014.5
20260502161556 21 290 9.7 12.9 0.00 0.00 0.00 61 1014.5
20260502161052 21 297 9.7 12.9 0.00 0.00 0.00 61 1014.5
20260502160552 21 292 8.0 9.7 0.00 0.00 0.00 61 1014.6
20260502152046 20 293 8.0 12.9 0.00 0.00 0.00 63 1015.1
20260502151550 20 291 8.0 12.9 0.00 0.00 0.00 64 1015.2
20260502151044 20 314 9.7 14.5 0.00 0.00 0.00 63 1015.3
20260502150544 20 292 9.7 14.5 0.00 0.00 0.00 65 1015.4
20260502130529 18 274 14.5 17.7 0.00 0.00 0.00 69 1016.9
20260502123525 18 273 12.9 20.9 0.00 0.00 0.00 71 1017.0
20260502123029 18 278 9.7 20.9 0.00 0.00 0.00 69 1017.1
20260502122523 18 285 11.3 17.7 0.00 0.00 0.00 70 1017.2
20260502122025 18 276 11.3 17.7 0.00 0.00 0.00 70 1017.2
20260502121522 18 272 12.9 17.7 0.00 0.00 0.00 70 1017.3
20260502121021 18 276 11.3 19.3 0.00 0.00 0.00 70 1017.3
20260502120519 18 278 11.3 19.3 0.00 0.00 0.00 69 1017.4
20260502115518 19 274 6.4 12.9 0.00 0.00 0.00 67 1017.5
20260502115017 18 247 4.8 14.5 0.00 0.00 0.00 69 1017.6
20260502114517 18 276 4.8 14.5 0.00 0.00 0.00 69 1017.6
20260502114017 19 275 8.0 22.5 0.00 0.00 0.00 67 1017.7
20260502113519 20 245 9.7 22.5 0.00 0.00 0.00 65 1017.6
20260502113017 20 213 9.7 16.1 0.00 0.00 0.00 65 1017.6
20260502112517 20 212 9.7 16.1 0.00 0.00 0.00 65 1017.7
20260502112014 20 231 11.3 16.1 0.00 0.00 0.00 65 1017.8
20260502111514 19 217 6.4 16.1 0.00 0.00 0.00 66 1017.8
20260502111013 20 250 6.4 14.5 0.00 0.00 0.00 65 1017.8
20260502110513 19 219 4.8 11.3 0.00 0.00 0.00 66 1017.8
20260502110011 19 202 4.8 14.5 0.00 0.00 0.00 66 1017.9
20260502105511 19 259 3.2 14.5 0.00 0.00 0.00 67 1017.8
20260502105011 19 244 9.7 17.7 0.00 0.00 0.00 67 1017.9
20260502104515 19 245 9.7 12.9 0.00 0.00 0.00 66 1018.0
20260502104008 18 262 8.0 16.1 0.00 0.00 0.00 67 1018.1
20260502103508 18 248 8.0 16.1 0.00 0.00 0.00 67 1018.1
20260502103008 18 265 8.0 16.1 0.00 0.00 0.00 67 1018.2
20260502102507 19 264 8.0 16.1 0.00 0.00 0.00 66 1018.2
20260502102006 19 272 3.2 16.1 0.00 0.00 0.00 65 1018.2
20260502101506 18 191 6.4 19.3 0.00 0.00 0.00 65 1018.2
20260502101011 19 198 11.3 20.9 0.00 0.00 0.00 65 1018.2
20260502100504 18 196 11.3 20.9 0.00 0.00 0.00 66 1018.3
20260502091059 17 238 6.4 12.9 0.00 0.00 0.00 69 1018.6
20260502090554 17 203 9.7 16.1 0.00 0.00 0.00 69 1018.6
20260502071045 13 124 3.2 6.4 0.00 0.00 0.00 64 1018.3
20260502070546 13 129 4.8 6.4 0.00 0.00 0.00 63 1018.3
20260502070045 13 139 4.8 6.4 0.00 0.00 0.00 63 1018.4
20260502065545 13 124 3.2 4.8 0.00 0.00 0.00 61 1018.4
20260502065045 13 167 1.6 3.2 0.00 0.00 0.00 61 1018.4
20260502064543 13 213 1.6 3.2 0.00 0.00 0.00 62 1018.4
20260502064042 13 255 0.0 1.6 0.00 0.00 0.00 62 1018.3
20260502063541 12 255 0.0 1.6 0.00 0.00 0.00 62 1018.2
20260502063055 12 255 0.0 3.2 0.00 0.00 0.00 62 1018.4
20260502062541 12 255 1.6 3.2 0.00 0.00 0.00 62 1018.4
20260502062040 12 236 0.0 3.2 0.00 0.00 0.00 61 1018.3
20260502061547 12 263 1.6 3.2 0.00 0.00 0.00 61 1018.4
20260502061041 12 310 1.6 4.8 0.00 0.00 0.00 60 1018.4
20260502060539 12 173 0.0 11.3 0.00 0.00 0.00 60 1018.5
20260502060040 12 180 6.4 11.3 0.00 0.00 0.00 60 1018.8
20260502055539 12 203 6.4 9.7 0.00 0.00 0.00 60 1018.8
20260502055039 12 181 6.4 9.7 0.00 0.00 0.00 60 1018.8
20260502054539 12 157 3.2 11.3 0.00 0.00 0.00 60 1018.8
20260502054038 11 194 8.0 11.3 0.00 0.00 0.00 60 1018.8
20260502053536 11 195 8.0 11.3 0.00 0.00 0.00 60 1018.7
20260502053047 11 174 1.6 4.8 0.00 0.00 0.00 61 1018.5
20260502052535 11 196 1.6 8.0 0.00 0.00 0.00 60 1018.4
20260502052035 11 192 4.8 9.7 0.00 0.00 0.00 60 1018.3
20260502051536 11 184 4.8 12.9 0.00 0.00 0.00 60 1018.5
20260502051034 11 180 6.4 12.9 0.00 0.00 0.00 60 1018.4
20260502050533 11 200 4.8 8.0 0.00 0.00 0.00 60 1018.4
20260502050033 12 191 4.8 8.0 0.00 0.00 0.00 59 1018.4
20260502045533 12 198 3.2 6.4 0.00 0.00 0.00 59 1018.4
20260502045033 12 210 3.2 9.7 0.00 0.00 0.00 58 1018.2
20260502044532 12 208 8.0 9.7 0.00 0.00 0.00 57 1018.5
20260502044031 12 210 6.4 8.0 0.00 0.00 0.00 57 1018.4
20260502043531 12 207 4.8 8.0 0.00 0.00 0.00 57 1018.4
20260502043031 12 207 3.2 8.0 0.00 0.00 0.00 58 1018.3
20260502042532 12 187 4.8 8.0 0.00 0.00 0.00 59 1018.3
20260502042032 12 172 4.8 6.4 0.00 0.00 0.00 58 1018.4
20260502041529 12 141 3.2 6.4 0.00 0.00 0.00 58 1018.2
20260502041029 12 125 4.8 6.4 0.00 0.00 0.00 58 1018.2
20260502040529 12 136 4.8 6.4 0.00 0.00 0.00 58 1018.2
20260502040029 12 146 3.2 6.4 0.00 0.00 0.00 57 1018.1
20260502035528 12 118 3.2 6.4 0.00 0.00 0.00 58 1018.2
20260502035028 12 131 4.8 8.0 0.00 0.00 0.00 57 1018.3
20260502034527 12 144 4.8 8.0 0.00 0.00 0.00 56 1018.4
20260502034026 12 191 3.2 11.3 0.00 0.00 0.00 57 1018.4
20260502033526 12 127 8.0 11.3 0.00 0.00 0.00 57 1018.4
20260502033025 12 170 3.2 9.7 0.00 0.00 0.00 57 1018.4
20260502032524 12 135 4.8 9.7 0.00 0.00 0.00 56 1018.3
20260502032024 12 162 6.4 8.0 0.00 0.00 0.00 56 1018.4
20260502031524 12 128 6.4 8.0 0.00 0.00 0.00 56 1018.5
20260502031023 12 170 3.2 6.4 0.00 0.00 0.00 56 1018.6
20260502030525 11 223 3.2 6.4 0.00 0.00 0.00 57 1018.7
20260502030024 12 264 3.2 9.7 0.00 0.00 0.00 58 1018.7
20260502025519 12 257 4.8 9.7 0.00 0.00 0.00 57 1018.8
20260502025019 12 124 6.4 8.0 0.00 0.00 0.00 56 1018.6
20260502024518 12 122 4.8 8.0 0.00 0.00 0.00 56 1018.5
20260502024018 12 124 4.8 6.4 0.00 0.00 0.00 56 1018.6
20260502023518 12 129 3.2 4.8 0.00 0.00 0.00 56 1018.6
20260502023017 12 117 3.2 4.8 0.00 0.00 0.00 56 1018.6
20260502022513 12 124 1.6 6.4 0.00 0.00 0.00 57 1018.6
20260502022017 13 120 1.6 6.4 0.00 0.00 0.00 55 1018.7